Weather Roundup
Issued by NWS

Home | Current Version | Previous Version | Graphics & Text | Print | Product List | Glossary Off
Versions: 1 2 3 4 5 6 7 8 9 10 11 12 13 14 15 16 17 18 19 20 21 22 23 24 25 26 27 28 29 30 31 32 33 34 35 36 37 38 39 40 41 42 43 44 45 46 47 48 49 50

000
NZUS93 KARX 300359
HRRWXR

CURRENT HOURLY OBSERVATIONS ACROSS
MUCH OF THE UPPER MISSISSIPPI VALLEY
NATIONAL WEATHER SERVICE LA CROSSE WI
1100 PM CDT TUE JUL 29 2014


...SOUTHEAST MINNESOTA...


CITY           SKY/WX    TMP DP  RH WIND       PRES   REMARKS
ROCHESTER      LGT RAIN  63  59  87 W8        30.09S
ROCHESTER/MAYO CLOUDY    64  56  76 W13       30.07F
WINONA         CLOUDY    68  55  64 CALM      30.08R
AUSTIN         CLEAR     64  54  68 W5        30.08S
ALBERT LEA     CLEAR     64  55  72 W3        30.10R
DODGE CENTER   CLOUDY    64  61  88 E3        30.09S
PRESTON        CLOUDY    63  61  95 NW6       30.08F
OWATONNA       CLEAR     59  55  88 CALM      30.08S
FARIBAULT      PTCLDY    64  55  72 W5        30.08S
$$

...ELSEWHERE IN MINNESOTA...


CITY           SKY/WX    TMP DP  RH WIND       PRES   REMARKS
MINNEAPOLIS    PTCLDY    70  55  59 NW6       30.06S
INTNL FALLS    PTCLDY    57  56  96 CALM      30.05S
DULUTH         MOCLDY    58  55  90 W7        30.05F
RED WING       PTCLDY    64  57  77 SE5       30.06S
REDWOOD FALLS  CLEAR     63  55  75 W7        30.10R
MANKATO        CLEAR     64  54  68 W5        30.09S
WORTHINGTON    PTCLDY    59  54  82 W3        30.15R
FAIRMONT       CLEAR     63  54  72 NW3       30.11S
$$

...SOUTHWEST WISCONSIN...


CITY           SKY/WX    TMP DP  RH WIND       PRES   REMARKS
LA CROSSE      CLOUDY    64  59  83 NW8       30.06R
PRAIRIE DU CHI PTCLDY    65  56  74 CALM      30.06S
BOSCOBEL       CLOUDY    63  60  90 W7        30.06S
LONE ROCK      NOT AVBL
PLATTEVILLE    MOCLDY    62  59  91 NW3       30.08R
FORT MC COY    LGT RAIN  60  58  96 CALM      30.07R
VIROQUA        FAIR      60  60  99 CALM      30.07R
WIS DELLS      PTCLDY    58  55  91 CALM      30.04S
$$

...ELSEWHERE IN WISCONSIN...


CITY           SKY/WX    TMP DP  RH WIND       PRES   REMARKS
MILWAUKEE      MOCLDY    61  58  90 W3        30.00F
MADISON        MOCLDY    62  57  83 CALM      30.03F
GREEN BAY      MOCLDY    60  59  96 W8        29.98S
EAU CLAIRE     MOCLDY    59  58  96 CALM      30.03F
BLACK RVR FLS  LGT RAIN  61  61 100 CALM      30.05F
MEDFORD        MOCLDY    55  54  97 CALM      30.03F
WAUSAU         PTCLDY    59  56  89 NW5       30.01R
WIS RAPIDS     LGT RAIN  61  57  87 CALM      30.04F
MARSHFIELD     CLOUDY    59  56  89 W7        30.02S
RICE LAKE      LGT RAIN  60  58  93 NW3       30.07R
$$

...NORTHEAST IOWA...


CITY           SKY/WX    TMP DP  RH WIND       PRES   REMARKS
WATERLOO       CLEAR     62  57  83 W5        30.08R
DUBUQUE        PTCLDY    63  57  81 NE9       30.08R
DECORAH        CLOUDY    66  57  72 CALM      30.06S
MASON CITY     CLEAR     58  55  90 W6        30.12R
CHARLES CITY   CLEAR     61  57  88 W5        30.10R
OELWEIN        CLEAR     61  57  88 NW7       30.09R
$$

...ELSEWHERE IN IOWA...


CITY           SKY/WX    TMP DP  RH WIND       PRES   REMARKS
DES MOINES     CLEAR     67  56  67 CALM      30.10S
IOWA CITY      CLEAR     63  59  87 W6        30.08S
FORT DODGE     CLEAR     57  54  88 CALM      30.12S
MARSHALLTOWN   CLEAR     61  58  90 W3        30.09S
CEDAR RAPIDS   CLEAR     61  56  83 W6        30.07R
$$

...NORTHERN ILLINOIS...


CITY           SKY/WX    TMP DP  RH WIND       PRES   REMARKS
CHICAGO-OHARE  CLOUDY    63  56  78 N10       30.02F
DUPAGE         PTCLDY    62  56  80 N7        30.03R
CHICAGO-MIDWAY CLOUDY    69  55  60 N15G25    30.03R
MOLINE         CLEAR     63  57  81 W5        30.05R
ROCKFORD       PTCLDY    67  52  58 NE9       30.06R
STERLING       PTCLDY    64  55  72 CALM      30.05S
PEORIA         CLEAR     66  58  75 W3        30.06S
$$

NOTE: "FAIR" INDICATES FEW OR NO CLOUDS BELOW 12,000 FEET WITH NO
SIGNIFICANT WEATHER AND/OR OBSTRUCTIONS TO VISIBILITY. WIND
SPEEDS ARE IN MILES-PER-HOUR.



USA.gov is the U.S. government's official web portal to all federal, state and local government web resources and services.